Date String (YYYY-MM-DD hh:mm:ss) UTC,Instrument flags,absolute air pressure of the measurement (hPa),sample flow rate (lpm),inlet stack bypass flow (lpm),air temperature of the measurement (°C),ambient temperature measured by the external sensor (°C),aerosol sample conditioner tube jacket temperature (°C),OPC LED temperature (°C),internal box temperature (°C),relative humidity of the measurement (%),span deviation,mass concentration of particles derived from Lorenz-Mie calculation of OPC scattering (μg/m³),mass concentration of particles derived from Lorenz-Mie calculation of OPC scattering (μg/m³),mass concentration of particles derived from Lorenz-Mie calculation of OPC scattering (μg/m³)
DateTimeUTC,F1_M11,P_M11,Q1_M11,Q2_M11,T1_M11,T2_M11,T3_M11,T4_M11,T5_M11,U1_M11,ZSPAN_M11,X2_M11,X0_M11,X1_M11
2023-07-20 14:00:00,SystemResetWarning,0837.6,4.99,000.00,029.7,028.0,000.0,038.2,031.2,32.7,0000.0,0001.59,0004.44,0001.03
2023-07-20 14:01:00,SystemResetWarning,0837.6,5.00,000.00,029.7,028.2,000.0,038.2,031.2,34.1,0000.0,0001.55,0004.47,0001.00
2023-07-20 14:02:00,SystemResetWarning,0837.6,5.00,000.00,029.7,028.2,000.0,038.2,031.2,33.8,0000.0,0001.55,0004.04,0000.99
2023-07-20 14:03:00,SystemResetWarning,0837.6,5.01,000.00,029.8,028.3,000.0,038.2,031.3,34.2,0000.0,0001.50,0003.91,0000.96
2023-07-20 14:04:00,SystemResetWarning,0837.6,5.00,000.00,029.8,028.4,000.0,038.2,031.3,34.1,0000.0,0001.46,0003.07,0000.93
2023-07-20 14:05:00,SystemResetWarning,0837.6,5.00,000.00,029.8,028.4,000.0,038.3,031.3,33.7,0000.0,0001.45,0002.91,0000.92
2023-07-20 14:06:00,SystemResetWarning,0837.6,5.00,000.00,029.8,028.5,000.0,038.3,031.4,33.1,0000.0,0001.44,0003.05,0000.92
2023-07-20 14:07:00,SystemResetWarning,0837.6,5.01,000.00,029.9,028.5,000.0,038.3,031.4,32.6,0000.0,0001.46,0003.29,0000.92
2023-07-20 14:08:00,SystemResetWarning,0837.6,4.99,000.00,029.9,028.6,000.0,038.3,031.4,33.5,0000.0,0001.48,0003.02,0000.91
2023-07-20 14:09:00,SystemResetWarning,0837.7,5.00,000.00,029.9,028.6,000.0,038.3,031.4,34.5,0000.0,0001.47,0003.01,0000.90
2023-07-20 14:10:00,SystemResetWarning,0837.7,5.00,000.00,029.9,028.7,000.0,038.3,031.5,33.0,0000.0,0001.47,0002.98,0000.91
2023-07-20 14:11:00,SystemResetWarning,0837.7,5.00,000.00,029.9,028.3,000.0,038.3,031.5,32.9,0000.0,0001.41,0002.84,0000.89
2023-07-20 14:12:00,SystemResetWarning,0837.6,5.00,000.00,029.9,026.6,000.0,038.2,031.3,34.3,0000.0,0001.43,0002.81,0000.90
2023-07-20 14:13:00,SystemResetWarning,0837.5,5.01,000.00,029.9,025.7,000.0,038.1,031.1,35.8,0000.0,0001.46,0002.84,0000.90
2023-07-20 14:14:00,SystemResetWarning,0837.5,5.02,000.00,030.0,025.7,000.0,038.1,031.0,34.5,0000.0,0001.50,0002.93,0000.92
2023-07-20 14:15:00,SystemResetWarning,0837.4,4.97,000.00,030.0,026.0,000.0,038.1,031.0,32.5,0000.0,0001.49,0002.95,0000.93
2023-07-20 14:16:00,SystemResetWarning,0837.3,5.02,000.00,030.1,026.4,000.0,038.2,031.0,31.1,0000.0,0001.53,0003.09,0000.93
2023-07-20 14:17:00,SystemResetWarning,0837.2,5.00,000.00,030.2,026.8,000.0,038.2,031.1,31.3,0000.0,0001.56,0003.51,0000.93
2023-07-20 14:18:00,SystemResetWarning,0837.2,5.00,000.00,030.2,027.1,000.0,038.3,031.1,30.6,0000.0,0001.55,0003.34,0000.95
2023-07-20 14:19:00,SystemResetWarning,0837.2,4.99,000.00,030.2,027.3,000.0,038.3,031.1,30.7,0000.0,0001.51,0003.33,0000.94
2023-07-20 14:20:00,SystemResetWarning,0837.2,5.00,000.00,030.2,027.6,000.0,038.3,031.2,30.3,0000.0,0001.51,0003.38,0000.94
2023-07-20 14:21:00,SystemResetWarning,0837.2,5.00,000.00,030.2,027.8,000.0,038.4,031.2,31.1,0000.0,0001.51,0003.41,0000.94
2023-07-20 14:22:00,SystemResetWarning,0837.3,5.00,000.00,030.3,027.9,000.0,038.4,031.3,31.0,0000.0,0001.50,0003.38,0000.93
2023-07-20 14:23:00,SystemResetWarning,0837.2,5.00,000.00,030.3,028.0,000.0,038.5,031.3,31.8,0000.0,0001.48,0003.39,0000.94
2023-07-20 14:24:00,SystemResetWarning,0837.2,5.01,000.00,030.3,028.2,000.0,038.5,031.3,31.0,0000.0,0001.44,0003.35,0000.94
2023-07-20 14:25:00,SystemResetWarning,0837.2,5.00,000.00,030.3,028.2,000.0,038.5,031.4,31.5,0000.0,0001.47,0003.42,0000.95
2023-07-20 14:26:00,SystemResetWarning,0837.3,4.99,000.00,030.3,028.3,000.0,038.5,031.4,31.8,0000.0,0001.49,0003.51,0000.96
2023-07-20 14:27:00,SystemResetWarning,0837.2,5.00,000.00,030.3,028.4,000.0,038.6,031.4,32.1,0000.0,0001.46,0003.53,0000.97
2023-07-20 14:28:00,SystemResetWarning,0837.2,5.00,000.00,030.3,028.4,000.0,038.6,031.5,31.5,0000.0,0001.43,0003.14,0000.96
2023-07-20 14:29:00,SystemResetWarning,0837.3,5.00,000.00,030.3,028.5,000.0,038.6,031.5,32.2,0000.0,0001.44,0002.99,0000.96
2023-07-20 14:30:00,SystemResetWarning,0837.3,4.99,000.00,030.4,028.6,000.0,038.6,031.5,32.9,0000.0,0001.47,0002.95,0000.97
2023-07-20 14:31:00,SystemResetWarning,0837.3,5.00,000.00,030.4,028.6,000.0,038.6,031.5,33.8,0000.0,0001.48,0002.95,0000.97
2023-07-20 14:32:00,SystemResetWarning,0837.4,4.99,000.00,030.4,028.6,000.0,038.7,031.6,33.8,0000.0,0001.49,0003.03,0000.97
2023-07-20 14:33:00,SystemResetWarning,0837.4,5.00,000.00,030.4,028.7,000.0,038.7,031.6,32.3,0000.0,0001.55,0003.19,0000.99
2023-07-20 14:34:00,SystemResetWarning,0837.4,5.01,000.00,030.4,028.7,000.0,038.7,031.6,33.1,0000.0,0001.63,0003.29,0001.01
2023-07-20 14:35:00,SystemResetWarning,0837.4,5.00,000.00,030.4,028.8,000.0,038.7,031.7,32.2,0000.0,0001.72,0003.41,0001.04
2023-07-20 14:36:00,SystemResetWarning,0837.3,5.00,000.00,030.4,028.8,000.0,038.7,031.7,32.1,0000.0,0001.71,0003.40,0001.05
2023-07-20 14:37:00,SystemResetWarning,0837.3,4.99,000.00,030.4,027.8,000.0,038.6,031.6,32.3,0000.0,0001.71,0003.31,0001.05
2023-07-20 14:38:00,SystemResetWarning,0837.2,5.00,000.00,030.4,026.2,000.0,038.5,031.4,31.5,0000.0,0001.72,0003.12,0001.07
2023-07-20 14:39:00,SystemResetWarning,0837.2,5.02,000.00,030.3,025.7,000.0,038.5,031.2,31.8,0000.0,0001.76,0003.16,0001.10
2023-07-20 14:40:00,SystemResetWarning,0837.2,5.00,000.00,030.1,025.9,000.0,038.5,031.0,31.2,0000.0,0001.90,0003.55,0001.13
2023-07-20 14:41:00,SystemResetWarning,0837.2,5.00,000.00,030.1,026.3,000.0,038.5,031.0,31.7,0000.0,0002.00,0004.72,0001.15
2023-07-20 14:42:00,SystemResetWarning,0837.2,5.00,000.00,030.0,026.6,000.0,038.5,031.1,32.3,0000.0,0002.08,0005.21,0001.17
2023-07-20 14:43:00,SystemResetWarning,0837.2,5.00,000.00,030.0,027.0,000.0,038.5,031.1,31.7,0000.0,0002.12,0005.20,0001.20
2023-07-20 14:44:00,SystemResetWarning,0837.2,5.00,000.00,030.0,027.3,000.0,038.5,031.2,31.4,0000.0,0002.18,0005.56,0001.22
2023-07-20 14:45:00,SystemResetWarning,0837.2,4.99,000.00,030.0,027.5,000.0,038.5,031.2,30.8,0000.0,0002.24,0005.84,0001.24
2023-07-20 14:46:00,SystemResetWarning,0837.2,4.99,000.00,030.0,027.7,000.0,038.5,031.3,31.0,0000.0,0002.25,0005.88,0001.24
2023-07-20 14:47:00,SystemResetWarning,0837.2,5.00,000.00,030.0,027.9,000.0,038.5,031.3,30.7,0000.0,0002.30,0006.11,0001.25
2023-07-20 14:48:00,SystemResetWarning,0837.2,5.01,000.00,030.0,028.1,000.0,038.5,031.3,30.7,0000.0,0002.36,0006.64,0001.26
2023-07-20 14:49:00,SystemResetWarning,0837.2,5.00,000.00,030.0,028.2,000.0,038.5,031.4,30.7,0000.0,0002.45,0006.95,0001.26
2023-07-20 14:50:00,SystemResetWarning,0837.2,5.01,000.00,030.0,028.3,000.0,038.5,031.4,30.0,0000.0,0002.46,0007.05,0001.27
2023-07-20 14:51:00,SystemResetWarning,0837.2,5.01,000.00,030.0,028.4,000.0,038.5,031.4,30.7,0000.0,0002.42,0006.96,0001.28
2023-07-20 14:52:00,SystemResetWarning,0837.2,4.99,000.00,030.0,028.5,000.0,038.5,031.4,31.1,0000.0,0002.44,0006.65,0001.28
2023-07-20 14:53:00,SystemResetWarning,0837.2,4.99,000.00,030.1,028.5,000.0,038.5,031.5,31.3,0000.0,0002.49,0007.03,0001.30
2023-07-20 14:54:00,SystemResetWarning,0837.2,5.00,000.00,030.1,028.6,000.0,038.5,031.5,31.0,0000.0,0002.56,0007.34,0001.31
2023-07-20 14:55:00,SystemResetWarning,0837.2,5.00,000.00,030.1,028.6,000.0,038.5,031.6,30.8,0000.0,0002.53,0007.10,0001.32
2023-07-20 14:56:00,SystemResetWarning,0837.2,5.00,000.00,030.1,028.7,000.0,038.5,031.6,31.6,0000.0,0002.49,0006.87,0001.34
2023-07-20 14:57:00,SystemResetWarning,0837.2,5.00,000.00,030.1,028.7,000.0,038.5,031.6,33.3,0000.0,0002.53,0007.07,0001.34
2023-07-20 14:58:00,SystemResetWarning,0837.2,4.98,000.00,030.2,027.3,000.0,038.4,031.5,35.7,0000.0,0002.51,0007.68,0001.33
2023-07-20 14:59:00,SystemResetWarning,0837.1,5.03,000.00,030.3,026.0,000.0,038.3,031.3,36.6,0000.0,0002.58,0007.84,0001.36
